DW6801 Weather Reports


time (UTC)temp
C
wind
direction
speed
KPH
gust
KPH
rain 1hr
cm
rain 24hr
cm
rain mn
cm
humidity
%
barometer
mb
20260831222514 14 252 3.2 4.8 0.00 2.34 0.00 94 1008.2
20260831222014 14 234 1.6 4.8 0.00 2.34 0.00 94 1008.2
20260831221534 14 242 0.0 3.2 0.00 2.34 0.00 94 1008.2
20260831221014 14 246 1.6 3.2 0.00 2.34 0.00 94 1008.3
20260831220516 14 239 1.6 6.4 0.00 2.34 0.00 94 1008.2
20260831220012 14 239 1.6 6.4 0.00 2.34 0.00 94 1008.3
20260831215506 14 229 1.6 6.4 0.00 2.34 2.34 94 1008.2
20260831215008 13 186 1.6 3.2 0.00 2.34 2.34 94 1008.2
20260831214517 13 221 1.6 3.2 0.00 2.34 2.34 94 1008.2
20260831214010 13 216 0.0 3.2 0.00 2.34 2.34 93 1008.1
20260831213511 13 216 1.6 3.2 0.00 2.34 2.34 94 1008.2
20260831213026 13 205 1.6 3.2 0.00 2.34 2.34 94 1008.2
20260831212515 13 198 1.6 3.2 0.00 2.34 2.34 93 1008.1
20260831212015 13 235 1.6 3.2 0.00 2.34 2.34 93 1008.1
20260831211527 13 235 0.0 3.2 0.00 2.34 2.34 93 1008.0
20260831211017 13 235 1.6 3.2 0.00 2.34 2.34 93 1008.0
20260831210515 13 249 0.0 3.2 0.00 2.34 2.34 93 1008.0
20260831210011 13 244 1.6 3.2 0.00 2.34 2.34 93 1007.9
20260831205510 13 233 1.6 3.2 0.00 2.34 2.34 1007.9
20260831205014 13 227 0.0 4.8 0.00 2.34 2.34 93 1007.9
20260831204518 14 229 1.6 4.8 0.00 2.34 2.34 93 1007.9
20260831204014 14 224 1.6 4.8 0.00 2.34 2.34 93 1007.8
20260831203512 14 214 1.6 4.8 0.00 2.34 2.34 93 1007.9
20260831203025 14 210 1.6 4.8 0.00 2.34 2.34 93 1008.0
20260831202515 14 210 1.6 4.8 0.00 2.34 2.34 93 1008.0
20260831202015 14 235 1.6 4.8 0.00 2.34 2.34 93 1007.9
20260831201533 14 231 1.6 4.8 0.00 2.34 2.34 93 1007.9
20260831201017 14 231 1.6 4.8 0.00 2.34 2.34 93 1007.9
20260831200516 14 215 1.6 4.8 0.00 2.34 2.34 93 1007.9
20260831200016 13 205 1.6 3.2 0.00 2.34 2.34 93 1007.8
20260831195510 13 227 1.6 4.8 0.00 2.34 2.34 93 1007.8
20260831195013 13 219 1.6 4.8 0.00 2.34 2.34 93 1007.8
20260831194523 14 218 1.6 4.8 0.00 2.34 2.34 93 1007.8
20260831194015 13 235 1.6 4.8 0.00 2.34 2.34 93 1007.8
20260831193514 13 267 3.2 8.0 0.00 2.34 2.34 93 1007.8
20260831193034 14 229 1.6 8.0 0.00 2.34 2.34 93 1007.8
20260831192518 14 175 1.6 4.8 0.00 2.34 2.34 1007.9
20260831192017 14 178 1.6 4.8 0.00 2.34 2.34 1007.8
20260831191531 13 181 1.6 4.8 0.00 2.34 2.34 92 1007.8
20260831191016 13 193 1.6 3.2 0.00 2.34 2.34 92 1007.6
20260831190510 14 230 1.6 3.2 0.00 2.34 2.34 92 1007.6
20260831190018 14 186 1.6 3.2 0.00 2.34 2.34 92 1007.5
20260831185502 14 186 0.0 3.2 0.00 2.34 2.34 92 1007.4
20260831185002 15 185 0.0 4.8 0.00 2.34 2.34 92 1007.3
20260831184504 14 186 3.2 4.8 0.00 2.34 2.34 92 1007.3
20260831184003 14 195 1.6 3.2 0.00 2.34 2.34 91 1007.4
20260831183503 14 182 1.6 4.8 0.00 2.34 2.34 91 1007.3
20260831183004 15 182 1.6 4.8 0.00 2.34 2.34 91 1007.4
20260831182507 15 180 1.6 4.8 0.00 2.34 2.34 91 1007.4
20260831182006 15 172 1.6 6.4 0.00 2.34 2.34 91 1007.3
20260831181506 15 169 1.6 6.4 0.00 2.34 2.34 91 1007.4
20260831181004 15 187 3.2 4.8 0.00 2.34 2.34 91 1007.4
20260831180504 15 179 1.6 6.4 0.00 2.34 2.34 91 1007.4
20260831180005 15 188 3.2 6.4 0.00 2.34 2.34 91 1007.4
20260831175504 16 184 1.6 3.2 0.00 2.34 2.34 90 1007.2
20260831175003 16 178 1.6 3.2 0.00 2.34 2.34 90 1007.2
20260831174511 16 177 0.0 3.2 0.00 2.34 2.34 90 1007.1
20260831174002 16 182 1.6 3.2 0.00 2.36 2.34 90 1007.2
20260831173503 16 182 0.0 3.2 0.00 2.36 2.34 91 1007.2
20260831173013 16 182 0.0 3.2 0.00 2.36 2.34 90 1007.2
20260831172502 16 225 0.0 3.2 0.00 2.36 2.34 90 1007.2
20260831172003 16 225 0.0 3.2 0.00 2.39 2.34 90 1007.2
20260831171506 16 225 0.0 3.2 0.00 2.39 2.34 90 1007.2
20260831171003 16 225 0.0 3.2 0.00 2.39 2.34 91 1007.1
20260831170503 16 225 1.6 3.2 0.00 2.39 2.34 90 1007.2
20260831170013 16 182 1.6 3.2 0.00 2.41 2.34 91 1007.2
20260831165506 16 182 1.6 3.2 0.00 2.41 2.34 90 1007.1
20260831165003 16 271 0.0 3.2 0.00 2.41 2.34 90 1007.1
20260831164504 17 271 1.6 3.2 0.00 2.41 2.34 91 1007.1
20260831164007 17 271 0.0 3.2 0.00 2.41 2.34 90 1007.1
20260831163504 17 271 1.6 4.8 0.00 2.41 2.34 90 1007.3
20260831163003 17 222 1.6 4.8 0.00 2.41 2.34 90 1007.4
20260831162507 17 211 1.6 4.8 0.00 2.41 2.34 89 1007.4
20260831162004 17 218 1.6 4.8 0.00 2.39 2.31 89 1007.2
20260831161505 17 215 3.2 4.8 0.00 2.39 2.31 88 1007.0
20260831161002 17 205 3.2 4.8 0.00 2.39 2.31 89 1006.9
20260831160504 17 167 1.6 4.8 0.00 2.39 2.31 89 1006.8
20260831160005 17 153 3.2 4.8 0.00 2.39 2.31 88 1006.8
20260831155504 17 182 1.6 6.4 0.00 2.39 2.31 87 1007.0
20260831155004 17 186 3.2 12.9 0.00 2.39 2.31 89 1007.1
20260831154527 17 246 3.2 12.9 0.00 2.39 2.31 89 1007.2
20260831154005 17 240 4.8 9.7 0.00 2.39 2.31 89 1007.2
20260831153504 17 254 1.6 6.4 0.00 2.39 2.31 89 1007.1
20260831153005 17 284 3.2 6.4 0.00 2.39 2.31 89 1007.1
20260831152504 17 285 0.0 4.8 0.00 2.39 2.31 89 1006.9
20260831152010 18 283 3.2 6.4 0.00 2.39 2.31 90 1007.0
20260831151505 18 277 3.2 6.4 0.00 2.57 2.31 89 1007.0
20260831151006 18 263 4.8 6.4 0.00 2.57 2.31 89 1006.9
20260831150504 18 253 3.2 6.4 0.00 2.57 2.31 90 1007.0
20260831150005 18 254 3.2 6.4 0.00 2.57 2.31 88 1006.9
20260831145503 18 261 1.6 6.4 0.00 2.72 2.31 89 1007.0
20260831145003 18 250 3.2 9.7 0.00 2.95 2.31 86 1007.1
20260831144507 18 267 3.2 14.5 0.00 3.17 2.31 86 1007.0
20260831144006 18 255 6.4 14.5 0.00 3.28 2.31 85 1007.0
20260831143503 19 206 4.8 12.9 0.00 3.30 2.31 86 1007.0
20260831143007 19 223 6.4 12.9 0.00 3.30 2.31 87 1006.9
20260831142505 19 176 3.2 14.5 0.00 3.30 2.31 87 1006.9
20260831142008 19 215 4.8 14.5 0.00 3.30 2.31 88 1007.0
20260831141508 19 185 4.8 9.7 0.00 3.30 2.31 88 1007.0
20260831141006 19 71 0.0 3.2 0.00 3.30 2.31 90 1007.0
20260831140506 19 71 0.0 4.8 0.00 3.30 2.31 90 1007.1
20260831140005 18 71 3.2 4.8 0.28 3.33 2.31 90 1007.1
20260831135505 18 104 0.0 4.8 0.89 3.35 2.31 92 1007.1
20260831135006 18 90 1.6 9.7 1.60 3.35 2.31 91 1007.1
20260831134509 17 107 3.2 12.9 1.63 3.35 2.31 91 1007.0
20260831134010 17 147 4.8 12.9 1.63 3.35 2.31 90 1007.0
20260831133506 17 159 8.0 12.9 1.63 3.35 2.31 90 1006.9
20260831133022 17 151 6.4 14.5 1.63 3.35 2.31 91 1006.8
20260831132509 17 124 8.0 14.5 1.63 3.35 2.31 91 1006.9
20260831132009 17 98 4.8 12.9 1.63 3.35 2.31 92 1007.0
20260831131508 17 109 8.0 12.9 1.63 3.35 2.31 90 1007.1
20260831131012 16 120 4.8 14.5 1.63 3.35 2.31 91 1007.2
20260831130507 15 185 1.6 32.2 1.63 3.35 2.31 89 1007.4
20260831130007 15 181 14.5 32.2 1.32 3.05 2.01 88 1008.1
20260831125506 16 148 14.5 27.4 0.74 2.44 1.40 91 1007.5
20260831125011 17 219 8.0 17.7 0.00 1.73 0.69 91 1007.5
20260831124508 17 133 6.4 17.7 0.00 1.70 0.66 91 1007.0
20260831124007 17 112 8.0 19.3 0.00 1.70 0.66 91 1007.2
20260831123507 17 130 11.3 19.3 0.00 1.70 0.66 91 1007.2
20260831123014 17 134 11.3 20.9 0.00 1.70 0.66 92 1007.2
20260831122507 17 111 9.7 20.9 0.00 1.70 0.66 91 1007.1
20260831122008 17 118 8.0 17.7 0.00 1.70 0.66 91 1007.3
20260831121507 17 169 6.4 19.3 0.00 1.70 0.66 92 1007.2
20260831121006 17 143 11.3 19.3 0.00 1.70 0.66 91 1007.3
20260831120503 17 140 9.7 17.7 0.00 1.70 0.66 91 1007.3
20260831120009 17 111 6.4 17.7 0.08 1.70 0.66 91 1007.3
20260831115506 18 122 6.4 17.7 0.20 1.70 0.66 90 1007.3
20260831115012 18 146 8.0 16.1 0.51 1.70 0.66 89 1007.3
20260831114510 18 92 6.4 16.1 0.56 1.70 0.66 89 1007.4
20260831114009 18 82 8.0 12.9 0.56 1.70 0.66 89 1007.3
20260831113510 18 138 6.4 12.9 0.56 1.70 0.66 91 1007.3
20260831113010 18 88 3.2 9.7 0.56 1.70 0.66 92 1007.2
20260831112508 18 80 4.8 9.7 0.56 1.70 0.66 93 1007.3
20260831112008 17 109 3.2 6.4 0.56 1.73 0.66 92 1007.5
20260831111509 17 140 3.2 12.9 0.56 1.73 0.66 93 1007.6
20260831111010 16 136 6.4 11.3 0.56 1.75 0.66 92 1007.6
20260831110507 16 115 4.8 9.7 0.56 1.75 0.66 92 1007.7
20260831110012 16 218 4.8 16.1 0.48 1.68 0.58 92 1007.8
20260831105507 16 194 6.4 19.3 0.36 1.57 0.46 91 1008.0
20260831105008 17 147 12.9 19.3 0.05 1.32 0.15 90 1007.8
20260831104520 17 157 8.0 19.3 0.00 1.27 0.08 90 1007.5
20260831104009 17 136 8.0 27.4 0.00 1.27 0.08 90 1007.7
20260831103508 17 146 12.9 27.4 0.00 1.27 0.08 88 1007.6
20260831103015 18 120 16.1 25.7 0.00 1.27 0.08 88 1007.7
20260831102511 18 117 12.9 22.5 0.00 1.27 0.08 89 1007.5
20260831102010 18 131 12.9 20.9 0.00 1.27 0.08 89 1007.4
20260831101514 18 138 12.9 19.3 0.00 1.27 0.08 90 1007.4
20260831101008 17 136 6.4 19.3 0.00 1.27 0.08 91 1007.5
20260831100507 17 164 11.3 25.7 0.00 1.27 0.08 90 1007.8
20260831100022 17 161 14.5 25.7 0.00 1.27 0.08 91 1007.8
20260831095508 17 159 8.0 16.1 0.00 1.27 0.08 92 1007.8
20260831095008 17 171 8.0 12.9 0.00 1.27 0.08 92 1007.7
20260831094514 17 128 6.4 12.9 0.00 1.27 0.08 93 1007.6
20260831094010 17 136 6.4 12.9 0.00 1.27 0.08 93 1007.7
20260831093510 16 158 4.8 16.1 0.00 1.27 0.08 93 1007.7
20260831093021 16 153 8.0 16.1 0.00 1.27 0.08 93 1007.9
20260831092509 16 149 8.0 17.7 0.00 1.27 0.08 93 1007.9
20260831092011 16 143 11.3 17.7 0.00 1.27 0.08 93 1007.9
20260831091515 16 107 4.8 16.1 0.00 1.27 0.08 93 1008.0
20260831091011 16 147 9.7 16.1 0.00 1.27 0.08 93 1008.0
20260831090509 16 133 11.3 17.7 0.00 1.27 0.08 93 1008.1
20260831090018 16 131 8.0 17.7 0.00 1.27 0.08 93 1008.2
20260831085509 16 144 12.9 16.1 0.03 1.27 0.08 93 1008.2
20260831085011 16 142 4.8 14.5 0.08 1.27 0.08 93 1008.2
20260831084532 16 132 8.0 14.5 0.08 1.27 0.08 93 1008.2
20260831084011 16 115 6.4 12.9 0.08 1.27 0.08 93 1008.2
20260831083511 16 146 6.4 12.9 0.08 1.27 0.08 93 1008.2
20260831083034 16 135 4.8 12.9 0.08 1.27 0.08 93 1008.3
20260831082509 16 132 8.0 12.9 0.08 1.27 0.08 93 1008.3
20260831082011 16 142 4.8 12.9 0.08 1.27 0.08 93 1008.3
20260831081520 16 122 3.2 11.3 0.08 1.27 0.08 93 1008.3
20260831081006 16 130 6.4 11.3 0.08 1.27 0.08 93 1008.3
20260831080508 16 146 4.8 11.3 0.08 1.27 0.08 92 1008.3
20260831080026 16 120 4.8 16.1 0.08 1.27 0.08 92 1008.3
20260831075512 16 103 4.8 16.1 0.03 1.22 0.05 92 1008.3
20260831075012 16 117 8.0 16.1 0.00 1.19 0.00 91 1008.5
20260831074518 16 121 8.0 12.9 0.00 1.19 0.00 91 1008.4
20260831074012 16 140 6.4 12.9 0.00 1.19 0.00 90 1008.4
20260831073512 16 145 4.8 8.0 0.00 1.19 0.00 90 1008.4
20260831073024 16 140 1.6 12.9 0.00 1.19 0.00 90 1008.5
20260831072509 16 171 6.4 12.9 0.00 1.19 0.00 89 1008.5
20260831072010 16 147 4.8 8.0 0.00 1.19 0.00 90 1008.5
20260831071513 16 153 4.8 11.3 0.00 1.19 0.00 90 1008.5
20260831071010 16 141 8.0 11.3 0.00 1.19 0.00 91 1008.5
20260831070512 16 149 3.2 8.0 0.00 1.19 0.00 92 1008.5
20260831070019 16 167 3.2 8.0 0.00 1.22 0.00 92 1008.5
20260831065511 16 153 3.2 8.0 0.00 1.22 0.00 92 1008.3
20260831065011 16 164 1.6 9.7 0.00 1.22 0.00 93 1008.4
20260831064523 15 165 4.8 9.7 0.00 1.22 0.00 93 1008.3
20260831064013 15 147 1.6 4.8 0.00 1.22 0.00 93 1008.3
20260831063514 15 169 1.6 6.4 0.00 1.22 0.00 94 1008.3
20260831063022 15 163 1.6 9.7 0.00 1.22 0.00 94 1008.3
20260831062508 15 132 4.8 9.7 0.00 1.22 0.00 94 1008.3
20260831062009 15 152 3.2 11.3 0.00 1.22 0.00 94 1008.4
20260831061517 15 243 6.4 9.7 0.00 1.22 0.00 94 1008.5
20260831061010 14 155 3.2 6.4 0.00 1.27 0.00 94 1008.6
20260831060513 14 146 3.2 6.4 0.00 1.32 0.00 94 1008.5
20260831060004 13 178 1.6 3.2 0.00 1.40 0.00 94 1008.5
20260831055503 13 178 1.6 1.6 0.00 1.40 0.00 94 1008.5
20260831055004 13 178 0.0 3.2 0.00 1.45 0.00 94 1008.5
20260831054506 13 178 0.0 4.8 0.00 1.45 0.00 94 1008.5
20260831054006 13 184 1.6 6.4 0.00 1.45 0.00 94 1008.7
20260831053508 13 157 1.6 6.4 0.00 1.45 0.00 94 1008.7
20260831053012 13 157 1.6 6.4 0.00 1.45 0.00 94 1008.7
20260831052508 13 163 1.6 6.4 0.00 1.45 0.00 94 1008.8
20260831052011 13 169 1.6 4.8 0.00 1.47 0.00 94 1008.8
20260831051523 12 167 1.6 4.8 0.00 1.50 0.00 94 1008.7
20260831051016 12 183 0.0 3.2 0.00 1.50 0.00 94 1008.7
20260831050512 12 183 0.0 3.2 0.00 1.50 0.00 94 1008.8
20260831050004 12 183 0.0 3.2 0.00 1.50 0.00 93 1008.9
20260831045504 12 183 1.6 3.2 0.00 1.50 0.00 94 1008.9
20260831045003 12 183 0.0 3.2 0.00 1.50 0.00 94 1008.8
20260831044517 12 184 1.6 4.8 0.00 1.50 0.00 94 1008.8
20260831044006 12 182 1.6 6.4 0.00 1.50 0.00 94 1008.9
20260831043508 12 178 3.2 6.4 0.00 1.50 0.00 94 1008.8
20260831043016 13 161 1.6 4.8 0.00 1.50 0.00 94 1008.9
20260831042512 12 184 1.6 4.8 0.00 1.50 0.00 94 1008.8
20260831042011 13 190 1.6 3.2 0.00 1.50 0.00 94 1008.8
20260831041532 13 212 0.0 3.2 0.00 1.50 0.00 94 1008.8
20260831041019 12 212 1.6 3.2 0.00 1.50 0.00 93 1008.8
20260831040504 12 212 1.6 3.2 0.00 1.50 0.00 93 1008.8
20260831040005 13 178 0.0 4.8 0.00 1.50 0.00 93 1008.7
20260831035508 13 178 1.6 4.8 0.00 1.50 0.00 93 1008.7
20260831035006 13 179 1.6 4.8 0.00 1.50 0.00 93 1008.7
20260831034517 13 191 1.6 6.4 0.00 1.50 0.00 93 1008.7
20260831034008 13 228 1.6 4.8 0.00 1.50 0.00 93 1008.7
20260831033510 13 216 1.6 4.8 0.00 1.50 0.00 93 1008.7
20260831033016 13 217 1.6 8.0 0.00 1.50 0.00 93 1008.8
20260831032514 13 246 3.2 6.4 0.00 1.50 0.00 93 1008.8
20260831032011 13 234 3.2 6.4 0.00 1.50 0.00 94 1008.9
20260831031528 13 225 3.2 11.3 0.00 1.50 0.00 94 1008.9
20260831031014 13 184 4.8 14.5 0.00 1.50 0.00 94 1009.0
20260831030514 14 240 3.2 14.5 0.00 1.50 0.00 94 1009.1
20260831030006 14 241 4.8 9.7 0.00 1.50 0.00 94 1009.0
20260831025504 14 235 3.2 8.0 0.00 1.50 0.00 94 1009.0
20260831025008 14 227 3.2 6.4 0.00 1.50 0.00 94 1009.0
20260831024511 14 249 3.2 8.0 0.00 1.50 0.00 94 1008.9
20260831024011 14 261 1.6 9.7 0.00 1.50 0.00 94 1008.9
20260831023512 14 217 3.2 9.7 0.00 1.50 0.00 94 1008.9
20260831023018 14 248 4.8 8.0 0.00 1.50 0.00 94 1009.1
20260831022514 14 188 4.8 8.0 0.00 1.50 0.00 94 1009.1
20260831022013 14 231 3.2 9.7 0.00 1.50 0.00 94 1009.1
20260831021536 13 242 3.2 9.7 0.00 1.50 0.00 94 1009.1
20260831021004 13 229 3.2 6.4 0.00 1.50 0.00 94 1009.1
20260831020504 13 205 3.2 6.4 0.00 1.50 0.00 94 1009.1
20260831020009 13 227 3.2 6.4 0.00 1.50 0.00 94 1009.1
20260831015507 13 237 1.6 6.4 0.00 1.50 0.00 94 1009.1
20260831015007 13 182 3.2 6.4 0.00 1.50 0.00 94 1009.1
20260831014515 13 244 4.8 6.4 0.00 1.50 0.00 94 1009.2
20260831014010 13 226 3.2 8.0 0.00 1.55 0.00 1009.2
20260831013515 13 236 3.2 8.0 0.00 1.55 0.00 1009.2
20260831013028 13 188 1.6 4.8 0.00 1.55 0.00 94 1009.2
20260831012514 13 194 1.6 4.8 0.00 1.55 0.00 94 1009.2
20260831012016 13 219 1.6 4.8 0.00 1.55 0.00 94 1009.2
20260831011531 13 221 1.6 6.4 0.00 1.55 0.00 1009.2
20260831011002 13 203 1.6 6.4 0.00 1.55 0.00 94 1009.2
20260831010506 13 237 1.6 4.8 0.00 1.55 0.00 94 1009.3
20260831010015 13 217 1.6 4.8 0.00 1.55 0.00 94 1009.2
20260831005510 13 218 1.6 3.2 0.00 1.55 0.00 94 1009.2
20260831005010 12 194 1.6 3.2 0.00 1.55 0.00 94 1009.2
20260831004516 12 198 1.6 3.2 0.00 1.55 0.00 94 1009.2
20260831004015 12 218 1.6 4.8 0.00 1.55 0.00 94 1009.2
20260831003513 12 215 1.6 4.8 0.00 1.55 0.00 94 1009.2
20260831003026 12 223 1.6 4.8 0.00 1.55 0.00 93 1009.2
20260831002514 12 236 3.2 6.4 0.00 1.52 0.00 93 1009.3
20260831002015 12 224 1.6 6.4 0.00 1.52 0.00 93 1009.2
20260831001529 13 230 1.6 8.0 0.00 1.52 0.00 93 1009.2
20260831001006 13 179 3.2 8.0 0.00 1.52 0.00 94 1009.2
20260831000509 13 196 1.6 6.4 0.00 1.52 0.00 94 1009.2
20260831000028 12 178 1.6 6.4 0.00 1.52 0.00 94 1009.3
20260830235510 12 194 1.6 4.8 0.00 1.52 0.00 93 1009.2
20260830235009 12 198 1.6 4.8 0.00 1.52 0.00 93 1009.2
20260830234523 12 252 3.2 3.2 0.00 1.52 0.00 93 1009.2
20260830234011 12 207 1.6 3.2 0.00 1.52 0.00 93 1009.1
20260830233514 13 207 1.6 3.2 0.00 1.52 0.00 93 1009.1
20260830233035 13 188 1.6 4.8 0.00 1.52 0.00 93 1009.1
20260830232516 13 187 3.2 4.8 0.00 1.52 0.00 93 1009.2
20260830232016 13 183 1.6 3.2 0.00 1.52 0.00 93 1009.2
20260830231510 13 227 1.6 3.2 0.00 1.52 0.00 93 1009.2
20260830231015 13 227 1.6 3.2 0.00 1.52 0.00 93 1009.2
20260830230508 13 226 1.6 3.2 0.00 1.52 0.00 93 1009.3
20260830230016 13 226 1.6 3.2 0.00 1.52 0.00 1009.3
20260830225510 13 226 1.6 3.2 0.00 1.52 0.00 92 1009.2
20260830225016 13 227 1.6 3.2 0.00 1.52 0.00 92 1009.2
20260830224524 13 227 1.6 3.2 0.00 1.52 0.00 92 1009.1
20260830224015 14 227 1.6 3.2 0.00 1.52 0.00 92 1009.1
20260830223517 14 227 1.6 3.2 0.00 1.52 0.00 92 1009.2
20260830223029 15 233 1.6 4.8 0.00 1.52 0.00 91 1009.2